Location: Pian di Sc�
(43.6333°N, 11.5500°E)
Time: 18:16:43
(UTC+00:00)

Cosmos 1470 - Pass Details

Date: 07 August 2020
Orbit: 520 x 543 km, 82.5° (Epoch: 19 September)

Event Time Altitude Azimuth Distance (km) Brightness Sun altitude
Exits shadow 02:41:15 25° 244° (WSW) 1,118 3.8 -14.4°
Maximum altitude 02:42:43 33° 284° (WNW) 927 3.7 -14.2°
Drops below altitude 10° 02:46:21 10° 350° (N) 1,815 5.8 -13.7°
Sets 02:48:41 0° 360° (N) 2,715 7.0 -13.4°
